Dewpoint
44 43 41 40 39 38 36 35 33 33 33 32 32 31 29 29 28 28 22 57 58 56 55 56 57 57 58 60 61 62 63 61 60 60 60 61 58 56 57 57 58 58 58 59 59 59 60 62 64 64 66 67 67 67 68 69 69 69 70 71 71 71 71 70 70 71 70 70 70 70 69 70 71 71 72 73 73 74 74 75 75 74 74 74 75 75
43 42 41 41 39 38 37 35 34 33 33 32 31 30 29 30 28 29 27 52 57 55 54 55 56 55 58 59 61 62 62 60 59 60 60 61 60 58 57 58 58 58 59 59 59 59 59 61 63 64 65 67 66 66 68 68 69 69 70 70 70 71 71 70 70 70 70 70 69 69 69 69 70 71 72 72 73 74 75 76 75 75 75 75 75 76
40 40 41 41 41 39 37 35 33 32 32 32 30 29 28 28 27 25 27 34 56 55 51 54 54 54 57 59 61 61 61 60 60 60 60 61 60 59 58 58 58 59 59 59 59 59 58 61 62 63 65 65 65 65 67 68 68 69 69 70 70 71 70 70 70 70 70 70 70 69 68 69 70 71 72 72 74 75 75 76 76 76 76 76 75 75
38 38 39 40 40 38 37 35 34 32 31 30 29 29 27 27 25 23 23 51 52 52 52 54 51 52 59 61 60 61 61 61 60 60 61 61 60 59 58 58 58 59 59 59 59 58 58 59 61 63 64 64 65 65 66 67 67 69 69 69 70 70 70 70 70 71 70 70 70 69 69 69 70 70 72 73 74 74 75 75 76 76 76 76 75 75
36 36 38 39 37 36 35 35 33 32 30 30 29 28 28 28 23 24 19 49 55 54 56 52 54 53 56 58 57 60 61 60 61 61 61 61 61 60 60 59 59 59 59 59 59 58 58 58 60 62 63 64 64 64 65 66 67 68 69 69 69 69 69 69 70 71 70 71 69 69 69 71 70 71 71 72 73 74 75 75 75 76 76 76 75 75
36 37 37 34 34 33 33 32 32 31 30 30 30 29 28 28 26 24 25 46 47 49 55 49 47 48 51 54 57 61 59 59 59 60 59 60 60 59 58 58 59 60 59 59 58 58 58 57 59 61 62 63 63 64 64 65 66 67 68 69 69 69 69 69 69 70 70 70 68 68 67 67 67 68 70 70 71 72 73 74 75 76 77 77 76 75
36 37 35 34 32 31 31 31 31 30 29 28 28 28 27 26 25 23 19 29 37 44 47 48 45 44 48 49 54 56 57 58 58 58 59 59 59 59 59 57 57 58 58 58 58 58 58 57 59 60 61 62 63 63 64 65 66 67 68 68 68 68 68 69 69 70 71 69 68 67 66 66 67 68 69 71 72 72 73 74 75 75 76 77 76 76
28 22 33 32 31 30 29 29 30 29 27 26 26 22 23 22 20 18 17 16 19 36 45 51 46 45 44 47 52 56 56 56 56 57 58 58 58 59 59 58 57 57 57 57 57 57 58 57 58 59 60 61 62 63 63 64 66 67 68 68 68 68 69 69 69 70 70 69 68 67 66 67 67 68 68 70 72 73 73 73 74 75 75 76 76 76
17 16 22 25 29 27 28 29 30 29 26 26 27 22 19 18 17 17 17 15 16 28 39 47 49 45 44 48 52 55 55 55 55 56 57 57 58 58 59 58 57 57 57 56 56 57 57 57 57 59 60 61 61 62 62 63 65 67 68 68 68 68 69 69 69 69 70 70 68 67 66 67 67 67 68 70 72 73 74 72 73 74 74 75 76 76
16 16 12 11 15 15 23 26 29 28 26 27 27 26 23 22 21 19 16 14 23 32 37 42 46 43 41 46 51 53 54 54 55 56 56 57 57 58 58 59 58 58 57 56 56 56 57 57 57 58 59 60 61 61 63 63 65 67 68 68 68 68 69 69 69 69 69 69 69 67 66 66 66 67 67 69 71 72 72 72 72 73 73 74 75 75
11 31 20 16 16 16 19 20 23 26 27 27 23 22 21 22 22 35 28 23 18 13 19 41 45 44 37 42 50 51 52 54 55 56 56 57 57 58 58 59 58 58 58 57 56 56 57 57 57 57 58 59 60 61 61 63 65 66 67 67 68 68 69 69 69 69 69 69 68 67 66 66 66 66 66 68 70 70 70 71 71 72 73 73 74 74
15 13 9 13 21 17 19 20 23 20 22 25 24 21 21 23 26 26 27 28 14 18 27 28 45 44 38 32 43 52 53 54 54 54 56 56 57 57 58 59 59 59 59 58 57 56 56 57 57 57 57 59 59 60 61 62 64 66 67 67 67 68 68 69 69 69 68 68 68 67 67 66 66 65 65 67 68 70 70 70 71 72 72 72 73 73
13 14 17 13 28 15 13 14 11 14 16 17 21 30 18 22 21 18 21 15 15 16 19 24 35 35 39 32 40 49 52 53 54 54 55 56 57 57 58 59 59 59 59 58 58 56 56 57 57 56 57 58 59 59 60 61 63 66 66 67 67 67 68 69 69 69 68 68 68 67 67 66 66 65 65 66 68 69 70 70 70 71 72 72 72 72
14 16 16 15 15 21 15 10 10 10 12 14 19 26 20 17 17 15 23 20 19 17 19 15 23 35 25 23 31 38 49 51 53 55 55 56 57 58 58 59 59 60 59 59 58 57 56 57 57 57 57 58 58 59 60 61 63 65 66 67 67 67 68 69 69 69 68 68 68 68 67 66 66 65 65 65 66 68 69 70 70 70 71 72 72 72
12 11 15 15 14 18 17 16 14 11 11 13 18 20 21 24 18 17 19 14 14 17 18 21 12 17 9 19 17 21 37 49 52 54 55 56 57 58 58 59 59 60 59 59 59 58 57 57 57 57 57 57 58 58 59 60 63 65 65 66 67 67 68 69 69 69 68 68 67 67 67 67 66 65 65 65 66 67 68 68 69 70 71 71 72 72
16 17 18 19 18 18 15 17 19 14 15 17 19 22 19 20 32 19 24 19 22 18 18 19 16 21 14 25 26 28 27 43 52 52 55 55 56 58 58 59 59 59 60 59 59 59 58 57 58 57 57 57 58 58 59 60 62 64 65 66 67 67 68 68 69 69 68 68 67 67 67 66 66 67 66 66 66 66 67 67 69 69 70 71 72 72
24 17 18 20 20 18 16 19 18 19 19 21 18 19 18 19 20 23 37 33 26 19 16 31 17 17 22 24 39 46 46 41 46 51 52 54 56 58 58 59 59 59 60 60 59 59 59 58 58 58 57 57 58 58 58 60 62 64 65 65 66 67 67 68 69 69 69 68 67 67 66 66 66 66 65 64 64 65 66 66 67 69 69 70 71 71
16 15 17 20 18 17 17 19 20 18 18 19 16 18 20 22 23 22 16 23 20 14 19 20 16 20 18 22 40 47 48 48 48 47 49 52 55 57 58 58 59 59 59 60 60 60 59 59 58 58 58 58 58 57 58 60 61 63 64 65 66 66 67 68 68 68 68 68 67 66 66 66 66 65 65 64 64 64 66 66 67 68 69 70 71 71
20 15 16 21 19 18 19 21 19 18 18 16 15 18 24 24 19 23 21 14 13 15 18 18 22 28 39 40 42 46 48 49 50 51 48 47 54 57 57 58 59 59 59 59 60 60 59 59 59 58 58 58 58 59 58 59 60 62 64 65 65 66 66 67 68 68 68 68 67 67 66 65 66 65 65 65 64 64 65 65 66 67 68 69 71 72
26 15 18 19 19 18 20 17 18 17 17 19 22 21 25 24 27 24 25 24 18 14 18 13 21 34 39 41 39 43 50 50 52 53 53 51 49 55 57 58 58 59 59 59 59 59 59 59 59 59 58 58 58 58 58 59 59 61 63 64 65 65 66 67 67 68 67 67 67 66 66 65 65 66 65 66 65 64 64 65 65 66 67 68 71 71
25 24 15 17 20 18 19 20 15 19 18 18 19 18 18 21 27 26 25 21 19 22 18 19 21 33 39 38 30 42 52 53 53 53 55 56 51 51 56 58 58 59 59 59 59 59 59 59 59 59 59 59 59 59 59 58 59 60 62 63 64 65 65 66 67 67 67 67 67 67 66 65 65 65 65 65 65 64 64 64 65 65 66 68 69 71
23 24 20 21 17 16 18 22 21 22 23 20 18 18 17 16 19 23 24 26 25 22 18 18 18 30 34 31 32 52 52 53 53 53 54 57 57 50 54 57 58 58 59 59 59 59 59 59 59 59 59 59 59 60 59 59 59 60 61 62 64 64 65 65 66 67 67 66 66 66 66 65 65 64 65 64 65 65 64 64 64 64 65 66 68 70
28 30 20 19 19 16 16 17 21 24 24 21 18 17 17 17 18 22 17 21 23 25 29 28 24 30 36 33 41 52 52 52 53 53 53 56 59 51 52 56 58 58 58 58 59 59 59 59 59 59 60 59 59 60 60 59 59 60 60 62 63 63 64 65 66 66 67 67 66 65 65 65 65 65 64 64 64 64 65 65 64 65 64 64 66 69
33 22 17 20 23 22 20 22 25 18 20 18 17 17 15 14 14 15 17 20 26 27 26 27 27 28 35 36 48 53 53 52 52 52 52 54 58 57 51 56 57 58 58 58 59 59 59 59 59 60 60 60 60 60 60 60 60 60 61 61 62 63 63 64 65 66 67 67 66 66 65 65 65 65 64 63 63 63 63 64 65 66 65 64 64 66
18 23 19 18 16 16 16 19 16 20 18 18 16 16 16 16 14 14 24 32 29 30 25 27 24 27 30 38 52 53 53 52 52 51 52 53 55 59 60 57 57 59 60 58 58 58 59 59 59 60 60 60 60 60 61 60 60 61 61 62 62 63 64 64 65 66 67 67 67 66 66 65 65 64 64 63 63 63 63 63 63 65 66 66 65 64
22 27 24 17 14 11 12 13 15 16 17 19 18 15 15 13 13 14 15 23 23 33 25 23 26 31 30 45 52 53 53 51 52 51 50 51 53 55 60 62 63 60 59 58 59 59 58 59 60 60 60 61 60 60 61 61 61 61 62 63 63 63 64 64 65 65 66 67 67 67 66 66 65 65 64 64 63 63 63 63 63 63 65 66 66 65
26 30 28 24 20 19 21 23 23 30 21 16 17 16 14 13 13 20 26 23 21 28 21 25 32 30 27 48 51 52 53 52 51 50 50 50 51 53 55 58 60 61 63 65 65 63 61 61 61 61 61 61 60 61 61 61 61 62 63 63 64 64 64 65 65 66 66 67 67 67 67 66 66 65 65 65 64 64 63 63 62 62 62 65 66 66
30 22 26 30 27 24 23 25 21 27 21 18 17 17 17 15 14 17 17 16 27 21 21 34 38 26 24 48 51 52 53 53 52 51 50 50 51 52 53 55 59 58 59 61 63 64 66 64 62 62 62 61 61 61 61 62 62 62 63 64 65 65 65 66 66 66 66 67 67 67 67 67 67 66 66 65 66 65 64 63 63 63 63 64 65 66
25 22 24 25 26 24 22 21 23 23 20 20 19 19 19 18 15 16 23 20 26 20 15 24 29 27 33 50 51 52 53 54 53 52 52 52 52 52 52 53 53 55 57 58 59 61 63 63 66 64 63 62 62 62 62 62 63 63 63 64 65 66 66 67 67 67 67 67 67 68 68 68 67 67 67 67 66 66 65 64 64 64 63 63 63 65
26 25 27 24 25 24 23 23 23 22 23 22 21 20 19 18 16 16 17 16 17 25 26 24 27 25 48 50 52 51 53 54 55 54 53 53 52 52 52 53 53 54 55 56 57 58 61 63 64 65 66 66 66 65 63 63 63 63 63 64 65 66 67 68 68 68 67 67 67 68 68 69 68 68 67 67 66 66 66 65 65 64 64 63 63 63
22 26 30 25 25 24 25 28 23 24 25 22 21 19 19 21 21 24 26 23 33 28 28 29 35 41 47 51 52 51 52 53 54 54 53 54 54 53 52 53 53 54 54 55 57 57 58 60 62 64 64 65 66 66 68 68 66 64 64 64 65 67 68 68 68 68 68 68 68 68 69 69 69 68 68 67 67 67 66 66 65 65 64 64 64 64
25 23 30 28 21 22 24 24 24 25 23 22 21 21 27 28 28 25 33 40 41 41 38 33 41 45 48 49 54 50 52 51 53 53 53 53 54 54 53 54 54 54 55 55 56 57 57 58 60 63 64 64 65 66 67 68 69 69 66 65 65 67 68 68 68 68 69 69 69 69 69 69 69 69 68 68 67 67 67 67 66 66 65 65 64 65
29 28 23 25 21 23 25 26 25 25 19 16 21 22 28 36 37 42 45 46 46 46 43 44 45 46 46 48 50 49 51 52 52 53 54 54 54 54 55 56 56 57 56 56 56 56 57 58 59 60 62 63 64 66 66 67 68 68 69 70 70 68 68 69 69 69 69 69 70 70 70 70 70 70 69 69 68 68 67 67 67 66 65 65 65 65
32 27 25 28 21 23 26 26 29 21 16 18 24 25 39 37 36 38 43 45 46 46 46 47 46 45 45 45 46 48 50 52 54 54 56 54 54 53 54 55 56 57 57 58 58 57 57 58 59 60 61 62 64 65 66 67 68 68 69 70 70 70 70 70 69 70 70 70 70 70 70 70 70 70 70 70 69 69 68 67 67 66 66 66 66 66
34 30 28 30 23 22 26 26 24 14 14 26 30 39 39 38 37 38 38 45 46 47 47 46 46 45 45 45 45 48 50 53 54 54 54 55 55 54 54 53 54 56 56 57 57 59 59 59 60 60 61 61 63 64 65 66 67 68 69 69 69 70 70 69 70 71 71 71 71 71 71 71 71 70 70 70 70 69 69 68 68 67 67 66 66 66
30 25 31 27 27 24 22 21 7 12 24 29 33 39 39 38 37 37 36 45 46 46 47 46 47 47 45 45 45 45 49 51 52 54 55 55 55 54 53 53 55 54 56 57 57 58 59 60 61 61 62 64 63 63 64 65 67 68 69 70 71 70 70 70 70 69 70 71 72 72 71 71 71 71 71 71 70 70 69 69 69 68 67 67 66 66
29 32 28 21 26 19 21 20 16 25 23 28 37 39 36 35 37 37 34 37 45 44 45 46 47 47 46 45 45 45 46 48 46 49 53 55 55 55 54 55 55 53 54 56 57 58 59 60 61 62 63 63 63 62 62 64 65 67 68 69 70 71 70 70 69 70 70 70 72 72 72 72 72 71 71 71 71 70 70 70 69 69 69 68 67 67
30 25 28 21 25 25 19 21 21 16 17 23 36 41 39 37 39 41 39 38 46 41 44 46 46 48 47 46 46 45 46 46 43 44 50 54 56 55 55 55 54 54 52 56 55 56 57 58 60 61 62 62 62 62 62 63 64 65 67 69 70 71 71 71 70 70 70 70 71 71 72 71 72 72 72 71 71 71 70 70 70 69 69 68 67 67
35 33 30 23 27 25 24 20 19 13 19 29 36 39 38 37 38 42 39 34 45 40 43 45 46 47 48 47 47 45 43 42 43 45 46 54 55 55 56 56 55 53 54 53 57 56 56 57 59 59 60 60 61 62 63 64 64 65 66 67 68 69 71 71 71 72 70 70 70 71 72 73 72 72 72 72 71 71 71 70 70 70 70 69 68 68
32 32 29 25 25 29 24 21 21 24 21 34 38 38 38 38 39 37 25 28 40 41 42 45 46 47 48 48 47 45 43 42 42 44 46 48 56 56 56 56 56 56 55 53 55 57 57 58 57 57 58 59 60 60 62 64 65 65 65 66 67 69 70 71 72 71 71 71 71 70 70 71 73 73 73 72 72 72 71 71 70 70 70 69 69 68
30 30 28 25 26 30 29 24 24 27 36 38 38 38 38 41 37 25 23 35 41 42 43 46 46 47 49 48 47 45 46 46 46 46 47 48 50 55 55 57 57 57 55 53 53 56 56 57 58 57 57 58 60 60 60 62 64 64 65 65 66 66 66 66 67 70 73 73 73 73 72 72 72 73 73 73 72 72 72 71 71 70 70 70 69 69
26 30 34 27 24 24 25 26 25 28 37 37 38 39 41 36 25 25 37 41 42 43 44 45 45 45 46 47 48 47 47 47 49 47 47 47 49 52 54 54 56 56 57 55 54 54 55 55 56 58 58 58 59 58 58 60 62 63 64 63 63 63 64 65 66 68 69 71 73 74 74 74 73 73 73 73 73 72 72 72 71 71 70 70 70 69
26 25 22 23 28 27 26 24 23 20 30 39 38 36 40 31 32 38 40 41 42 41 41 42 42 41 43 44 44 43 44 45 46 46 46 47 48 50 52 52 54 56 55 55 53 54 54 53 54 56 57 58 58 57 57 59 60 61 63 62 62 63 64 65 66 66 67 68 70 72 73 74 74 73 73 73 73 73 72 72 72 71 71 70 70 70
34 26 22 26 30 24 24 23 22 30 34 40 37 32 36 38 40 41 40 38 39 40 40 40 40 41 41 41 41 42 42 43 45 46 46 46 47 50 52 53 54 55 56 55 54 54 55 53 54 56 57 58 58 56 57 58 59 60 60 60 61 62 63 64 65 65 66 67 69 71 73 74 74 73 73 73 73 73 72 72 72 72 71 71 70 70
34 29 28 26 30 28 27 28 32 37 39 38 39 38 38 38 41 40 40 39 39 39 41 40 40 41 41 42 42 43 42 43 43 45 46 46 46 48 50 52 53 54 55 54 56 56 55 53 54 55 57 58 57 56 56 58 58 59 59 60 61 61 61 62 64 65 66 67 69 71 73 74 74 73 73 73 73 73 73 72 72 71 71 71 70 70
37 38 37 35 34 36 37 36 37 38 38 38 39 40 38 40 41 41 40 39 39 40 41 40 41 41 42 43 43 43 43 43 43 43 44 46 47 48 52 53 54 54 53 54 55 57 56 55 55 55 57 57 57 55 57 57 58 58 58 60 61 60 61 62 63 64 66 67 68 70 72 73 73 73 73 73 73 73 73 72 72 72 71 71 71 70
37 39 36 33 35 28 26 34 36 36 37 38 38 39 41 41 40 40 40 40 40 41 41 41 41 42 42 43 44 44 44 44 44 44 44 45 47 49 50 51 53 53 54 53 54 57 55 55 55 56 57 57 56 55 56 56 57 58 59 59 59 61 61 62 63 65 65 66 68 70 72 73 73 73 73 73 73 73 73 72 72 72 71 71 71 70
32 38 34 34 32 30 30 32 35 36 37 38 38 38 38 39 39 40 41 41 41 42 42 42 42 42 43 44 44 44 44 45 44 44 44 45 47 48 49 50 52 53 54 54 54 56 56 54 55 56 57 56 54 55 56 56 57 58 58 59 59 60 61 62 63 64 65 65 67 70 73 73 73 73 73 73 73 72 72 72 72 72 71 71 71 71
35 39 31 33 33 34 34 34 35 36 35 37 39 39 39 39 39 39 40 41 41 41 41 42 43 43 43 44 44 45 46 46 46 45 45 45 45 47 49 50 52 53 54 54 55 57 55 55 56 57 58 56 54 55 56 56 56 58 58 58 59 60 61 62 63 64 64 65 68 71 72 72 73 73 73 73 73 73 73 72 72 72 72 72 72 72
36 32 33 32 31 30 30 32 35 29 29 34 37 38 38 40 40 40 41 41 41 41 42 42 42 44 44 45 45 46 46 46 46 46 45 45 45 46 48 50 51 52 53 54 56 55 55 56 56 57 58 56 54 55 56 56 56 57 57 58 59 60 61 62 63 64 65 67 69 70 70 71 71 72 73 73 73 73 73 70 65 69 72 72 67 65
34 34 35 32 30 30 32 33 36 35 35 36 37 39 40 41 41 41 41 41 42 42 43 43 43 44 45 46 47 46 46 46 47 47 46 46 46 47 49 50 50 51 52 54 55 55 54 54 57 58 58 56 56 56 56 56 56 56 57 58 59 60 60 62 63 64 64 64 66 68 69 70 71 72 73 73 73 73 72 73 71 57 58 63 66 62